Location: Orange Harbor Mobile Home Park
(26.6923°N, 81.7937°W)
Time: 08:21:59
(UTC+00:00)

Cosmos 1707 Rocket - Pass Details

Date: 19 September 2020
Orbit: 606 x 630 km, 82.5° (Epoch: 29 October)

Event Time Altitude Azimuth Distance (km) Brightness Sun altitude
Exits shadow 09:49:37 20° 193° (SSW) 1,421 5.2 -19.7°
Maximum altitude 09:52:35 73° 276° (W) 636 3.4 -19.0°
Drops below altitude 10° 09:56:54 10° 1° (N) 1,957 6.3 -18.1°
Sets 09:59:08 0° 3° (N) 2,865 7.2 -17.6°
